SB KEPS @ AMSAT $ORB07025.N 2Line Orbital Elements 07025.AMSAT
HR AMSAT ORBITAL ELEMENTS FOR AMATEUR SATELLITES IN NASA FORMAT FROM WA5QGD FORT WORTH,TX January 25, 2007 Send SUBSCRIBE KEPS/UNSUBSCRIBE KEPS to majordomo@amsat.org only BID: ORB07025.N
DECODE 2-LINE ELSETS WITH THE FOLLOWING KEY: 1 AAAAAU 00 0 0 BBBBB.BBBBBBBB .CCCCCCCC 00000-0 00000-0 0 DDDZ 2 AAAAA EEE.EEEE FFF.FFFF GGGGGGG HHH.HHHH III.IIII JJ.JJJJJJJJKKKKKZ KEY: A-CATALOGNUM B-EPOCHTIME C-DECAY D-ELSETNUM E-INCLINATION F-RAAN G-ECCENTRICITY H-ARGPERIGEE I-MNANOM J-MNMOTION K-ORBITNUM Z-CHECKSUM
TO ALL RADIO AMATEURS BT
AO-07 1 07530U 74089B 07025.68698549 -.00000028 00000-0 10000-3 0 7894 2 07530 101.5376 067.7810 0012100 173.2506 186.8734 12.53572457473267 AO-10 1 14129U 83058B 07023.80110248 -.00000192 00000-0 10000-3 0 3527 2 14129 026.9929 295.0459 6050984 352.2168 001.6023 02.05869632177591 UO-11 1 14781U 84021B 07025.55996146 .00000374 00000-0 57333-4 0 2841 2 14781 098.2003 045.4280 0008164 272.3235 087.7119 14.79516368228646 RS-10/11 1 18129U 87054A 07024.90376310 .00000009 00000-0 -68117-5 0 02044 2 18129 082.9263 164.1616 0011026 190.8743 169.2173 13.72783313981577 RS-15 1 23439U 94085A 07024.92286229 -.00000039 00000-0 10597-3 0 00258 2 23439 064.8162 238.6108 0163268 215.9279 143.0579 11.27551534497541 FO-29 1 24278U 96046B 07024.95750962 .00000005 00000-0 37849-4 0 04348 2 24278 098.5307 003.9738 0351399 094.5295 269.6061 13.52927285515534 SO-33 1 25509U 98061B 07025.80493561 .00000313 00000-0 48069-4 0 8486 2 25509 031.4345 310.7469 0355824 262.5707 093.4398 14.28144373430885 AO-40 1 26609U 00072B 07023.43735867 -.00000077 00000-0 10000-3 0 8322 2 26609 004.8694 182.1565 7998693 262.5057 011.0946 01.25586286 28624 VO-52 1 28650U 05017B 07025.71386530 .00000374 00000-0 54516-4 0 5389 2 28650 097.8474 099.5231 0027474 359.8414 000.2836 14.81257017 93321 AO-16 1 20439U 90005D 07024.54735194 -.00000009 00000-0 11915-4 0 9501 2 20439 098.1898 027.0625 0010004 255.5492 104.4580 14.31748025887990 LO-19 1 20442U 90005G 07025.58816001 -.00000035 00000-0 21307-5 0 8805 2 20442 098.1821 037.5386 0010974 251.6062 108.3930 14.31989515888282 AO-27 1 22825U 93061C 07025.44924691 -.00000020 00000-0 85070-5 0 6019 2 22825 098.3124 001.6942 0008246 330.7837 029.2892 14.29197297695105 IO-26 1 22826U 93061D 07024.47112176 -.00000001 00000-0 15867-4 0 02953 2 22826 098.3046 001.8906 0008830 330.8105 029.2587 14.29442778695040 PO-28 1 22829U 93061G 07024.84711427 -.00000036 00000-0 21805-5 0 5761 2 22829 098.2950 003.4349 0009078 301.5312 058.4977 14.30140637695324 GO-32 1 25397U 98043D 07024.66140165 .00000038 00000-0 35179-4 0 02153 2 25397 098.4364 078.0057 0000687 328.2300 031.8837 14.23119673443747 MO-46 1 26548U 00057D 07025.16700400 .00000048 00000-0 24106-4 0 7064 2 26548 064.5561 265.1070 0031750 216.0301 143.8642 14.83090098342328 NO-44 1 26931U 01043C 07025.77667878 .00000228 00000-0 12154-3 0 5061 2 26931 067.0525 154.3272 0005354 276.2321 083.8152 14.29471776277744 SO-50 1 27607U 02058C 07025.78731081 -.00000025 00000-0 17829-4 0 2279 2 27607 064.5574 157.3576 0038504 048.8793 311.5601 14.71221609220170 CO-55 1 27844U 03031E 07025.53921109 .00000069 00000-0 52277-4 0 9460 2 27844 098.7205 035.7796 0010175 139.1051 221.0885 14.20487815185223 CO-57 1 27848U 03031J 07024.55549200 .00000049 00000-0 43130-4 0 9098 2 27848 098.7186 034.0585 0010119 145.6831 214.5000 14.20310006185064 AO-51 1 28375U 04025K 07024.65118240 .00000019 00000-0 18946-4 0 7312 2 28375 098.1342 071.2189 0083266 257.8025 101.3833 14.40552810135048 CO-56 1 28941U 06005C 07024.63282881 .00015674 22922-5 17836-3 0 03386 2 28941 098.1518 070.2601 0248693 059.3329 303.2128 15.33759791051383 HO-59 1 29484U 06041F 07024.58148795 .00032342 25981-5 26587-3 0 01692 2 29484 098.3102 053.6649 0249147 056.8915 305.5923 15.39906625018895 NO-60 1 29661U 06055C 07024.72081300 .00042318 00000-0 17060-3 0 00507 2 29661 051.6486 123.3987 0012565 147.2120 212.9663 15.85822290005506 NO-61 1 29667U 06055J 07024.69191972 .00012249 00000-0 58601-4 0 00525 2 29667 051.6373 123.9362 0017010 142.8535 217.3648 15.83097234005233 NOAA-10 1 16969U 86073A 07024.59598131 -.00000171 00000-0 -51546-4 0 05159 2 16969 098.7536 041.6316 0011841 223.7966 136.2277 14.27314970058742 NOAA-11 1 19531U 88089A 07024.78438876 .00000141 00000-0 95674-4 0 4936 2 19531 098.8171 115.7242 0012422 079.7103 280.5451 14.14834003945871 NOAA-12 1 21263U 91032A 07024.83628113 -.00000200 00000-0 -65615-4 0 9872 2 21263 098.7457 022.3603 0013150 160.6500 199.5153 14.25519767815824 MET-3/5 1 21655U 91056A 07024.89371027 .00000051 00000-0 10000-3 0 02319 2 21655 082.5555 104.1918 0012598 203.4303 156.6246 13.17009346742541 MET-2/21 1 22782U 93055A 07025.47434837 -.00000027 00000-0 -37564-4 0 7311 2 22782 082.5500 155.1283 0020908 276.9696 082.9092 13.83613700676788 OKEAN-4 1 23317U 94066A 07024.54892334 .00000094 00000-0 86791-5 0 01689 2 23317 082.5376 070.5415 0022678 010.2080 349.9578 14.82458881662779 NOAA-14 1 23455U 94089A 07024.54735916 -.00000171 00000-0 -66494-4 0 04799 2 23455 099.0097 089.8509 0010024 143.5810 216.6035 14.13693457622346 SICH-1 1 23657U 95046A 07023.61301023 -.00000071 00000-0 -12112-4 0 09693 2 23657 082.5263 212.3113 0024110 002.4717 357.6611 14.81442862614621 NOAA-15 1 25338U 98030A 07024.82540677 .00000008 00000-0 21784-4 0 8446 2 25338 098.5264 025.5881 0011543 088.5394 271.7118 14.24623203452271 RESURS 1 25394U 98043A 07024.74107293 .00000027 00000-0 30201-4 0 05695 2 25394 098.4649 084.8084 0000624 247.3146 112.7967 14.24125561443933 FENGYUN1 1 25730U 99025A 07016.60112448 .00000048 00000-0 29058-4 0 9329 2 25730 098.6469 006.2281 0014921 004.1687 356.0079 14.06556409396135 OKEAN-0 1 25860U 99039A 07024.53530521 .00000068 00000-0 17633-4 0 09615 2 25860 097.7299 033.5044 0001763 092.9525 267.1892 14.73425484404346 NOAA-16 1 26536U 00055A 07024.81001718 -.00000039 00000-0 39818-5 0 2463 2 26536 099.1001 359.3868 0010169 213.6158 146.4334 14.12400201326864 NOAA-17 1 27453U 02032A 07024.53317989 .00000057 00000-0 43537-4 0 02627 2 27453 098.5980 097.1819 0012455 149.7168 210.4752 14.23847996238276 NOAA-18 1 28654U 05018A 07024.59240796 .00000147 00000-0 10568-3 0 08123 2 28654 098.8146 328.3982 0013937 317.5240 042.4827 14.11031932086605 HUBBLE 1 20580U 90037B 07024.37791882 .00000375 00000-0 16337-4 0 07988 2 20580 028.4684 047.8413 0003327 011.9411 348.1259 15.00179821718347 UARS 1 21701U 91063B 07025.63763781 .00002698 00000-0 54196-4 0 9797 2 21701 056.9777 211.8010 0090292 277.1551 081.9241 15.46471561843681 PO-34 1 25520U 98064B 07024.95067331 .00000579 00000-0 18875-4 0 06629 2 25520 028.4611 347.3548 0005605 139.3178 220.7835 15.16911065455758 ISS 1 25544U 98067A 07025.85348500 .00014229 00000-0 86446-4 0 5173 2 25544 051.6349 119.5106 0023020 131.7718 331.8482 15.77472143468297 OO-38 1 26063U 00004C 07023.50247130 -.00000016 00000-0 14787-4 0 08230 2 26063 100.2150 359.4697 0036767 206.4625 153.4681 14.35793560366292 NO-45 1 26932U 01043D 07024.86961192 -.00000082 00000-0 13663-6 0 05201 2 26932 067.0526 156.4058 0003461 274.6521 085.4185 14.29547056277651 UWE-1 1 28892U 05043C 07025.74802273 .00000107 00000-0 32390-4 0 6613 2 28892 098.1443 285.1008 0016942 194.2094 165.8616 14.59457096 66437 CO-58 1 28895U 05043F 07025.73146544 .00000057 00000-0 21821-4 0 6438 2 28895 098.1471 285.2434 0017526 194.3543 165.7147 14.59506646 66315 NCUBE2 1 28897U 05043H 07024.65661717 .00000153 00000-0 41702-4 0 01762 2 28897 098.1465 284.1552 0016625 199.9064 160.1496 14.59665793058436 NMARS 1 29662U 06055D 07024.71763034 .00052151 00000-0 20422-3 0 00544 2 29662 051.6494 123.3725 0012509 144.0832 216.1013 15.86327531005390 FCAL 1 29664U 06055F 07025.69989666 .00017028 00000-0 78825-4 0 360 2 29664 051.6383 118.6658 0016458 144.2460 215.9665 15.83447222 5529 /EX
participants (1)
-
Ray Hoad